Regional Weather Roundup
Issued by NWS Burlington, VT

Current Version | Previous Version | Graphics & Text | Print | Product List | Glossary On
Versions: 1 2 3 4 5 6 7 8 9 10 11 12 13 14 15 16 17 18 19 20 21 22 23 24 25 26 27 28 29 30 31 32 33 34 35 36 37 38 39 40 41 42 43 44 45 46 47 48 49 50
000
ASUS41 KBTV 062311
RWRBTV
VERMONT REGIONAL WEATHER ROUNDUP
NATIONAL WEATHER SERVICE BURLINGTON VT
600 PM EST SAT MAR 06 2021

NOTE: "FAIR" INDICATES FEW OR NO CLOUDS BELOW 12,000 FEET WITH NO
SIGNIFICANT WEATHER AND/OR OBSTRUCTIONS TO VISIBILITY.

* THESE REPORTS ARE NOT UNDER NWS QUALITY CONTROL AND/OR DO NOT
  REPORT WEATHER SUCH AS PRECIPITATION AND FOG.

VTZ001>019-070000-
_____VERMONT_____


CITY           SKY/WX    TMP DP  RH WIND       PRES   REMARKS
BURLINGTON     CLOUDY    22   5  48 NW9       30.11R WCI  12
MONTPELIER     CLOUDY    18   5  57 NW10      30.06R WCI   6
MORRISVILLE    CLOUDY    19   4  51 NW7G18    30.07R WCI  10
ST. JOHNSBURY*   N/A     20   5  52 MISG      30.03R
LYNDONVILLE*   CLOUDY    17   5  57 W9G18     30.03R WCI   6
MIDDLEBURY*    CLOUDY    20   4  49 N5        30.09R WCI  14
RUTLAND*       CLOUDY    21   7  54 NW12G20   30.05R WCI   9
SPRINGFIELD    CLOUDY    24   4  42 VRB6G16   30.04R WCI  17
HIGHGATE*      FAIR      19   1  45 W3        30.12R
NEWPORT*       CLOUDY    17   1  50 W9G16     30.05R WCI   5
BENNINGTON     PTCLDY    21   6  52 W8        30.06R WCI  11
LAKE EDEN*       N/A     16 N/A N/A W1          N/A

_____LAKE CHAMPLAIN_____


CITY           SKY/WX    TMP DP  RH WIND       PRES   REMARKS
COLCHESTER RF*   N/A     23   7  50 NW18G24     N/A  WCI   9

$$

NYZ007-026>031-035-052-083-087-070000-
_____NORTHERN NEW YORK_____


CITY           SKY/WX    TMP DP  RH WIND       PRES   REMARKS
PLATTSBURGH    CLOUDY    20   5  52 VRB7      30.12R WCI  11
SARANAC LAKE   CLOUDY    13   3  64 W6        30.00R WCI   4
MASSENA        CLOUDY    19   5  54 W10       30.15R WCI   7
OGDENSBURG*    CLOUDY    21   9  58 CALM      30.12R
POTSDAM*       CLOUDY    19   7  58 SW10      30.12R WCI   8
WATERTOWN      CLOUDY    22  11  62 SW3       30.14R
FT DRUM        CLOUDY    20   8  58 W7        30.10R WCI  11
ALBANY         MOCLDY    21   7  54 NW9       30.14R WCI  11
GLENS FALLS    CLOUDY    23   4  44 W12G17    30.10R WCI  12

$$
NHZ002-005-011-070000-
_____NEW HAMPSHIRE_____


CITY           SKY/WX    TMP DP  RH WIND       PRES   REMARKS
LEBANON        CLOUDY    26   7  44 NW7       30.03R WCI  18
KEENE          CLOUDY    25  10  53 W13       30.05R WCI  14
MT WASHINGTON  FOG       -6  -6 100 W33         N/A  VSB 1/16WCI -35
PLYMOUTH       MOCLDY    24   6  48 NW8       30.02R WCI  14
WHITEFIELD     CLOUDY    19   5  54 NW14      30.00R WCI   6

$$

_____REGIONAL QUEBEC LOCATIONS_____


CITY           SKY/WX    TMP DP  RH WIND       PRES   REMARKS
MONTREAL       PTCLDY    19   5  53 W15       30.10R WCI   5
QUEBEC CITY    CLOUDY    19   5  53 W13G18    29.97R WCI   7
SHERBROOKE     CLOUDY    14   7  73 SW6       30.01R WCI   5

_____REGIONAL ONTARIO LOCATIONS_____


CITY           SKY/WX    TMP DP  RH WIND       PRES   REMARKS
OTTAWA         PTCLDY    18   3  53 W10       30.13R WCI   6

______KEY______
VSB  - VISIBILITY IN MILES
WCI  - WIND CHILL INDEX
HX   - HEAT INDEX
$$
NNNN




USA.gov is the U.S. government's official web portal to all federal, state and local government web resources and services.